Regional Weather Roundup
Issued by NWS State College, PA

Home | Current Version | Previous Version | Text Only | Print | Product List | Glossary Off
Versions: 1 2 3 4 5 6 7 8 9 10 11 12 13 14 15 16 17 18 19 20 21 22 23 24 25 26 27 28 29 30 31 32 33 34 35 36 37 38 39 40 41 42 43 44 45 46 47 48 49 50

000
ASUS41 KCTP 132310
RWRCTP

REGIONAL WEATHER ROUNDUP
NATIONAL WEATHER SERVICE STATE COLLEGE PA
600 PM EST WED DEC 13 2017

Note: "fair" indicates few or no clouds below 12,000 feet with no
significant weather and/or obstructions to visibility.

* = STATION THAT DOES NOT REPORT PRECIPITATION /E.G. RAIN...SNOW...ETC/
    THUNDER OR FOG.

PAZ002>004-007>009-013>016-020>023-029>032-140000-
WESTERN PENNSYLVANIA

CITY           SKY/WX    TMP DP  RH WIND       PRES   REMARKS
ERIE           LGT SNOW  20  16  84 SE9       29.56F VSB 1   WCI   9
MEADVILLE      LGT SNOW  18  15  88 VRB6      29.50F FOG     WCI  10
FRANKLIN*      LGT SNOW  17  14  88 SE8       29.52F FOG     WCI   7
NEW CASTLE     CLOUDY    21  17  84 VRB6      29.53F WCI  13
BEAVER COUNTY  MOCLDY    19  16  86 SE8       29.52F WCI   9
BUTLER*        CLOUDY    21  16  81 SE8       29.55F WCI  11
PITTSBURGH INT CLOUDY    23  17  78 SE14      29.53F WCI  11
PITTSBURGH     CLOUDY    20  15  81 SE9       29.54F WCI   9
INDIANA*       CLOUDY    21  16  79 S5        29.61S WCI  15
LATROBE        LGT SNOW  23  16  74 W7        29.60F WCI  15
WASHINGTON CO* CLOUDY    21  16  81 SE5       29.56F WCI  15
$$

PAZ004>006-010>012-017>019-024>028-033>037-041-042-045-046-049>053-140000-
CENTRAL PENNSYLVANIA

CITY           SKY/WX    TMP DP  RH WIND       PRES   REMARKS
BRADFORD       LGT SNOW  14  11  87 SE5       29.51S FOG     WCI   6
DUBOIS         LGT SNOW  16  11  80 SE5       29.54S WCI   9
CLEARFIELD     FLURRIES  18  13  80 CALM      29.58F
JOHNSTOWN      CLOUDY    19  13  77 S6        29.52F WCI  11
ALTOONA        CLOUDY    23  11  60 S6        29.60F
STATE COLLEGE  CLOUDY    19   9  63 CALM      29.62F
WILLIAMSPORT   CLOUDY    24   7  48 W9        29.67F WCI  14
SELINSGROVE    PTCLDY    22   9  57 SW3       29.70F
FT INDIANTOWN  PTCLDY    24   5  42 NW5       29.69F
CAPITAL CITY   PTCLDY    27   4  37 CALM      29.71S
HARRISBURG     PTCLDY    27   9  46 W6        29.71S
YORK           PTCLDY    25   8  48 CALM      29.70F
$$

PAZ038>040-043-044-047-048-054-055-060>062-067>071-140000-
EASTERN PENNSYLVANIA

CITY           SKY/WX    TMP DP  RH WIND       PRES   REMARKS
SCRANTON       PTCLDY    22   6  50 W6        29.62R WCI  14
MOUNT POCONO   CLEAR     16   5  62 W10G21    29.54R WCI   4
ALLENTOWN      PTCLDY    25   5  42 W9        29.69R
QUAKERTOWN*    CLEAR     25   5  42 W3        29.70R
READING        CLEAR     24   8  50 W8        29.70S
LANCASTER      CLEAR     25   7  46 W6        29.72R
COATESVILLE    CLEAR     25   5  42 SW5       29.71S
POTTSTOWN      PTCLDY    23   5  46 W3        29.72S
BLUE BELL      CLEAR     27   7  43 W3        29.73R
DOYLESTOWN     CLEAR     24   4  42 W10       29.68R WCI  14
WILLOW GROVE   NOT AVBL
NORTH PHILA    CLEAR     28   5  37 W9        29.73R
PHILADELPHIA   PTCLDY    28   3  34 W13       29.75R
$$




USA.gov is the U.S. government's official web portal to all federal, state and local government web resources and services.